Weather History for Middletown, PA

Change the Weather History Date:

Sunday, November 24, 2013

  Actual Average Record
Temperature  
Mean Temperature 27 °F 41 °F  
Max Temperature 31 °F 49 °F 69 °F (1999)
Min Temperature 22 °F 32 °F 19 °F (2000)
Degree Days  
Heating Degree Days 38 24  
Month to date heating degree days 501 474  
Since 1 July heating degree days 847 886  
Cooling Degree Days 0 0  
Month to date cooling degree days 0 0  
Year to date cooling degree days 1105 1002  
Moisture  
Dew Point 3 °F    
Average Humidity 39    
Maximum Humidity 55    
Minimum Humidity 22    
Precipitation  
Precipitation T in 0.11 in 1.83 in (1980)
Month to date precipitation 0.88 2.49  
Year to date precipitation 37.35 36.77  
Snow  
Snow T in - - ()
Month to date snowfall T  
Since 1 July snowfall T  
Since 1 September snowfall T  
Snow Depth T in    
Sea Level Pressure  
Sea Level Pressure 30.35 in    
Wind  
Wind Speed 18 mph (NW)    
Max Wind Speed 32 mph    
Max Gust Speed 41 mph    
Visibility 10 miles    
Events Snow    
T = Trace of Precipitation, MM = Missing Value Source: NWS Daily Summary

Daily Weather History Graph

Daily Weather History Graph

Search for Another Location

Airport:

Trip Planner

Search our weather history database for the weather conditions in past years. The results will help you decide how hot, cold, wet, or windy it might be!

Date:

Astronomy

Nov. 24, 2013 Rise Set
Actual Time 7:03 AM EST 4:44 PM EST
Civil Twilight 6:33 AM EST 5:14 PM EST
Nautical Twilight 5:59 AM EST 5:47 PM EST
Astronomical Twilight 5:27 AM EST 6:19 PM EST
Moon 11:08 PM EST (11/24) 11:49 AM EST (11/24)
Length of Visible Light 10h 40m
Length of Day
9h 41m
Waning Gibbous, 61% of the Moon is Illuminated
Nov 24
Waning Gibbous
Nov 25
Last Quarter
Dec 2
New
Dec 9
First Quarter
Dec 17
Full

Hourly Weather History & Observations

Time (EST) Temp. Windchill Dew Point Humidity Pressure Visibility Wind Dir Wind Speed Gust Speed Precip Events Conditions
12:56 AM 26.1 °F 11.6 °F 1.9 °F 35% 30.19 in 10.0 mi NW 21.9 mph 35.7 mph N/A   Scattered Clouds
1:56 AM 25.0 °F 10.6 °F 5.0 °F 43% 30.21 in 10.0 mi WNW 20.7 mph 28.8 mph N/A   Scattered Clouds
2:56 AM 25.0 °F 10.6 °F 9.0 °F 51% 30.21 in 10.0 mi NW 20.7 mph 34.5 mph N/A   Scattered Clouds
3:56 AM 24.1 °F 10.6 °F 14.0 °F 65% 30.22 in 9.0 mi WNW 17.3 mph - 0.00 in Snow Light Snow
4:56 AM 24.1 °F 9.0 °F 3.9 °F 42% 30.24 in 10.0 mi NW 21.9 mph 31.1 mph 0.00 in   Scattered Clouds
5:56 AM 23.0 °F 8.3 °F 1.0 °F 39% 30.27 in 10.0 mi NW 19.6 mph 27.6 mph N/A   Partly Cloudy
6:56 AM 21.9 °F 8.2 °F 1.0 °F 40% 30.29 in 10.0 mi NW 16.1 mph 26.5 mph N/A   Partly Cloudy
7:56 AM 23.0 °F 9.6 °F 1.0 °F 39% 30.32 in 10.0 mi NW 16.1 mph 27.6 mph N/A   Partly Cloudy
8:56 AM 24.1 °F 8.0 °F 1.9 °F 38% 30.34 in 10.0 mi NW 25.3 mph 35.7 mph N/A   Scattered Clouds
9:56 AM 26.1 °F 10.4 °F 1.0 °F 34% 30.35 in 10.0 mi NW 26.5 mph 34.5 mph N/A   Scattered Clouds
10:56 AM 28.0 °F 13.9 °F 1.0 °F 31% 30.35 in 10.0 mi NW 23.0 mph 31.1 mph N/A   Scattered Clouds
11:56 AM 30.0 °F 16.3 °F 1.0 °F 29% 30.35 in 10.0 mi NW 24.2 mph 32.2 mph N/A   Scattered Clouds
12:56 PM 28.9 °F 16.5 °F -4.0 °F 24% 30.35 in 10.0 mi NW 18.4 mph 31.1 mph N/A   Scattered Clouds
1:56 PM 30.0 °F 17.2 °F -4.0 °F 23% 30.35 in 10.0 mi NW 20.7 mph 29.9 mph N/A   Scattered Clouds
2:56 PM 30.0 °F 17.2 °F -4.0 °F 23% 30.36 in 10.0 mi NNW 20.7 mph 29.9 mph N/A   Partly Cloudy
3:56 PM 28.9 °F 16.5 °F -2.0 °F 26% 30.39 in 10.0 mi NW 18.4 mph 25.3 mph N/A   Partly Cloudy
4:56 PM 27.0 °F 15.2 °F -2.9 °F 27% 30.40 in 10.0 mi NNW 15.0 mph 28.8 mph N/A   Partly Cloudy
5:56 PM 26.1 °F 13.6 °F -0.9 °F 31% 30.42 in 10.0 mi NW 16.1 mph 21.9 mph N/A   Partly Cloudy
6:56 PM 27.0 °F 16.1 °F 7.0 °F 43% 30.45 in 10.0 mi West 12.7 mph - N/A   Scattered Clouds
7:56 PM 26.1 °F 14.0 °F 10.0 °F 51% 30.45 in 10.0 mi WNW 15.0 mph - N/A   Partly Cloudy
8:56 PM 25.0 °F 11.7 °F 10.0 °F 53% 30.47 in 10.0 mi NW 17.3 mph 26.5 mph N/A   Scattered Clouds
9:56 PM 25.0 °F 14.2 °F 10.0 °F 53% 30.47 in 10.0 mi WNW 11.5 mph - N/A   Partly Cloudy
10:56 PM 24.1 °F 13.7 °F 9.0 °F 53% 30.48 in 10.0 mi West 10.4 mph - N/A   Partly Cloudy
11:56 PM 24.1 °F 13.7 °F 9.0 °F 53% 30.48 in 10.0 mi West 10.4 mph - N/A   Partly Cloudy